#timestamp,LO_Frequency,Hit,StdDev 
1512529215.6,286046994.6,N
1512529235.5,286046993.3,Y
1512529255.3,286047004.3,P
1512529275.1,286047004.3,N
1512529295.9,286047004.7,N
1512529315.7,286047008.2,N
1512529335.6,286047007.1,N
1512529355.4,286047005.3,N
1512529375.2,286047007.3,N
1512529395.1,286047007.5,N
1512529396.0,286047007.5,N
1512529415.8,286047003.2,N
1512529435.6,286047006.8,N
1512529455.5,286047007.3,N
1512529475.3,286047007.4,N
1512529495.2,286047004.6,N
1512529515.9,286047005.1,N
1512529535.7,286047004.8,N
1512529555.6,286047006.0,N
1512529575.4,286047001.6,N
1512529595.2,286047000.3,N
1512529615.1,286046999.7,N
1512529616.0,286046999.7,N
1512529635.8,286047000.0,N
1512529655.7,286047001.0,N
1512529675.5,286046999.7,N
1512529695.3,286047001.4,N
1512529715.2,286047004.0,N
1512529735.0,286047007.1,N
1512529735.9,286047007.1,N
1512529755.8,286047003.5,N
1512529775.6,286047001.4,N
1512529795.4,286047001.8,N
1512529815.3,286047004.4,N
1512529835.1,286047002.8,N
1512529855.8,286047003.8,N
1512529875.7,286047003.1,N
1512529895.5,286047002.3,N
1512529915.4,286047002.6,N
1512529935.2,286046998.5,N
1512529955.0,286046999.5,N
1512529955.9,286046999.5,N
1512529975.8,286046993.9,N
1512529995.6,286046999.4,N
1512530015.4,286046993.3,N
1512530035.3,286046990.8,N
1512530055.1,286046992.6,N
1512530075.9,286046991.6,N
1512530095.7,286046993.1,N
1512530115.5,286046988.8,N
1512530135.4,286046993.1,N
1512530155.2,286046995.6,N
1512530175.0,286046995.9,N
1512530175.9,286046995.9,N
1512530195.8,286046994.4,N
1512530215.6,286046995.7,N
1512530235.5,286046992.9,N
1512530255.3,286046997.6,N
1512530275.1,286046996.9,N
1512530295.9,286046996.9,N
1512530315.7,286046999.5,N
1512530335.5,286046993.6,N
1512530355.4,286046995.7,N
1512530375.2,286046991.7,N
1512530395.1,286046993.0,N
1512530396.0,286046993.0,N
1512530415.8,286046995.6,N
1512530435.6,286046992.1,N
1512530455.5,286046990.9,N
1512530475.3,286046990.8,Y
1512530495.2,286046996.9,P
1512530515.9,286046999.6,N
1512530535.7,286047000.0,N
1512530555.6,286046994.9,N
1512530575.4,286046992.9,Y
1512530595.2,286046993.5,P
1512530615.1,286046999.3,N
1512530616.0,286046999.3,N
1512530635.8,286047001.8,N
1512530655.7,286046998.9,N
1512530675.5,286046997.8,N
1512530695.3,286046998.8,N
1512530715.2,286047000.8,N
1512530735.0,286047005.5,N
1512530735.9,286047005.5,N
1512530755.7,286047005.6,N
1512530775.6,286046999.7,N
1512530795.4,286047000.2,N
1512530815.3,286046999.8,N
1512530835.1,286047001.2,N
1512530836.0,286047001.2,N
1512530855.8,286046997.9,N
1512530875.7,286046998.6,N
1512530895.5,286046998.6,N
1512530915.3,286046996.6,N
1512530935.2,286046998.4,N
1512530955.0,286046998.6,N
1512530955.9,286046998.6,N
1512530975.8,286046999.5,N
1512530995.6,286046995.8,N
1512531015.4,286046996.4,N
1512531035.3,286046993.4,N
1512531055.1,286046991.5,N
1512531075.8,286046992.2,N
1512531095.7,286046994.0,N
1512531115.5,286046995.3,N
1512531135.4,286046999.0,N
1512531155.2,286046998.8,N
1512531175.0,286046996.1,N
1512531175.9,286046996.1,N
1512531195.8,286046994.3,N
1512531215.6,286046994.4,N
1512531235.5,286046997.9,N
1512531255.3,286046999.4,N
1512531275.1,286046997.4,N
1512531295.9,286046998.6,N
1512531315.7,286047002.0,N
1512531335.5,286046999.6,N
1512531355.4,286046995.0,N
1512531375.2,286046997.0,N
1512531395.1,286046993.4,N
1512531396.0,286046993.4,N
1512531415.8,286046996.2,N
1512531435.6,286046993.6,N
1512531455.5,286046994.8,N
1512531475.3,286046998.5,N
1512531495.1,286047002.3,N
1512531515.9,286047002.5,N
1512531535.7,286046996.7,N
1512531555.6,286047000.7,N
1512531575.4,286047002.2,N
1512531595.2,286046999.5,N
1512531615.1,286047000.9,N
1512531616.0,286047000.9,N
1512531635.8,286047002.2,N
1512531655.7,286047000.0,N
1512531675.5,286047001.9,N
1512531695.3,286047003.8,N
1512531715.2,286047007.6,N
1512531735.9,286047005.0,N
1512531755.7,286047003.0,N
1512531775.6,286047003.4,N
1512531795.4,286047001.4,N
1512531815.3,286047001.3,N
1512531835.1,286047000.6,N
1512531836.0,286047000.6,N
1512531855.8,286047000.6,N
1512531875.7,286047000.8,N
1512531895.5,286047000.6,N
1512531915.3,286047002.5,N
1512531935.2,286047002.7,N
1512531955.0,286046999.8,N
1512531955.9,286046999.8,N
1512531975.8,286047001.1,N
1512531995.6,286046998.8,N
1512532015.4,286047001.9,N
1512532035.3,286047001.6,N
1512532055.1,286047005.9,Y
1512532075.8,286047003.7,P
1512532095.7,286047002.1,N
1512532115.5,286047003.1,P
1512532135.4,286047002.8,Y
1512532155.2,286046999.2,P
1512532175.0,286046996.4,N
1512532175.9,286046996.4,N
1512532195.8,286047000.4,N
1512532215.6,286047000.1,N
1512532235.5,286046999.3,N
1512532255.3,286046995.1,N
1512532275.1,286047000.6,N
1512532295.9,286046999.6,N
1512532315.7,286046997.5,N
1512532335.5,286046996.5,N
1512532355.4,286046997.3,N
1512532375.2,286046998.4,N
1512532395.0,286046996.0,N
1512532396.0,286046996.0,N
1512532415.8,286046996.9,N
1512532435.6,286046999.5,N
1512532455.5,286046996.6,N
1512532475.3,286046999.7,N
1512532495.1,286046997.6,N
1512532515.9,286046995.7,N
1512532535.7,286046996.2,N
1512532555.6,286046997.9,N
1512532575.4,286046995.5,N
1512532595.2,286046995.2,N
1512532615.1,286046995.4,N
1512532616.0,286046995.4,N
1512532635.8,286046994.4,N
1512532655.6,286046994.5,N
1512532675.5,286046994.7,N
1512532695.3,286046999.4,N
1512532715.2,286047000.5,N
1512532735.9,286047002.8,N
1512532755.7,286047003.4,N
1512532775.6,286047002.7,N
1512532795.4,286046998.1,N
